www.pogodaiklimat.ru

Погода и климат >> Архив погоды >> Норвегия >> Fagernes


ПОГОДА в Fagernes

  • Прогноз погоды в Fagernes
  • Монитор погоды в Fagernes
  • Климат города

АРХИВ ПОГОДЫ в Fagernes

Время (UTC), дата Ветер
(напр.,м/с)
 
Видим.   Явления Облачность Т
(С)
Тd
(С)
f
(%)
Тe
(С)
Тes
(С)
Комфортность P
(гПа)
Po
(гПа)
Тmin
(С)
Tmax
(С)
R
(мм)
R24
(мм)
S
(см)
02 19.09 штиль 0-1
{3}
н/о н/о +9.6 +8.2 91 +9 +9 1011.6 968.2
01 19.09 штиль 0-1
{2}
н/о н/о +10.1 +7.4 83 +9 +9 1011.7 968.3
03 19.09 штиль 0 10 км слабый дождь 10/4 600 м
[Frnb As op]
+9.3 +7.9 91 +8 +8 1011.6 968.2
04 19.09 штиль 0
{1}
н/о н/о +9.3 +7.8 90 +8 +8 1011.7 968.2
05 19.09 штиль 0 н/о н/о +8.8 +7.4 91 +8 +8 1011.9 968.4
06 19.09 штиль 0
{3}
5000 м слабый дождь {морось} 10/10 300 м
[Frnb]
+9.2 +7.8 91 +8 +8 1012.1 968.7 +8.7 +12.8
08 19.09 штиль 0 н/о н/о +11.4 +6.8 73 +11 +11 1012.1 968.9
07 19.09 штиль 0
{1}
н/о н/о +10.0 +7.8 86 +9 +9 1012.2 968.8
09 19.09 штиль 0
{1}
30 км {морось} 9/3 200 м
[Frnb As op]
+10.7 +6.5 75 +10 +11 1012.2 969.0
10 19.09 штиль 0 н/о н/о +11.5 +6.4 71 +11 +11 1012.0 968.9
11 19.09 В 2-4
{4}
н/о н/о +12.2 +6.9 70 +11 +11 1011.7 968.7
12 19.09 В 2-3
{4}
н/о н/о +12.2 +7.1 71 +11 +11 1011.8 968.8
14 19.09 ЮВ 1-2
{3}
н/о н/о +10.6 +6.6 76 +10 +10 1012.2 969.0
13 19.09 В 2-3
{3}
н/о н/о +11.4 +6.9 74 +10 +10 1012.0 968.8
15 19.09 штиль 0-1
{2}
30 км слабая морось 8/8 600 м
[Frnb As op Ci fib]
+11.1 +6.9 75 +11 +11 1011.8 968.6
16 19.09 В 1-2
{2}
н/о н/о +11.1 +6.9 75 +11 +11 1011.8 968.6
17 19.09 В 2-3
{3}
н/о н/о +10.8 +7.1 78 +10 +10 1012.1 968.8
18 19.09 штиль 0-1
{3}
30 км слабая морось {дождь} 10/6 1000 м
[Frnb As op]
+9.9 +6.8 81 +9 +9 1012.5 969.1 +9.2 +12.5
20 19.09 В 1-2
{2}
н/о н/о +9.8 +7.2 84 +9 +9 1012.6 969.2
19 19.09 штиль 0-1
{1}
н/о н/о +9.7 +6.8 82 +9 +9 1012.7 969.3
21 19.09 штиль 0-1
{2}
н/о н/о +9.6 +6.9 83 +9 +9 1012.4 969.0
22 19.09 СВ 1-3
{3}
н/о н/о +9.6 +6.5 81 +9 +9 1012.1 968.7
23 19.09 В 1-3
{3}
н/о н/о +9.4 +6.8 84 +9 +9 1012.0 968.6
00 20.09 В 2-3
{3}
20 км слабый дождь 10/5 600 м
[Frnb As op]
+9.6 +7.0 84 +8 +8 1011.8 968.4
02 20.09 В 3-5
{5}
н/о н/о +9.1 +7.1 87 +7 +7 1011.9 968.5
01 20.09 В 4-5
{5}
н/о н/о +9.5 +7.1 85 +7 +7 1011.7 968.3
03 20.09 В 4-5
{5}
20 км слабый дождь 10/5 600 м
[Frnb As op]
+8.6 +6.7 88 +5 +5 1012.0 968.5
04 20.09 В 3-4
{5}
н/о н/о +8.2 +6.7 90 +5 +5 1012.4 968.8
05 20.09 ЮВ 3-5
{5}
н/о н/о +8.0 +6.1 88 +5 +5 1013.0 969.3
06 20.09 В 2-4
{5}
5000 м дождь 10/6 200 м
[Frnb As op]
+7.6 +5.6 87 +5 +5 1013.6 969.8 +7.6 +10.0
08 20.09 В 2-4
{5}
н/о н/о +7.1 +4.9 86 +5 +5 1015.5 971.5
07 20.09 В 3-5
{5}
н/о н/о +7.4 +5.4 87 +4 +4 1014.5 970.6
09 20.09 В 1-4
{4}
н/о н/о +6.5 +4.7 88 +5 +5 1016.3 972.2
10 20.09 В 2-3
{4}
н/о н/о +5.6 +3.5 86 +3 +3 1017.0 972.8
11 20.09 В 1-3
{4}
н/о н/о +5.4 +3.4 87 +4 +4 1017.6 973.3
12 20.09 В 1-3
{5}
5000 м дождь 10/6 200 м
[Frnb As op]
+5.3 +3.0 85 +4 +5 1017.9 973.6
14 20.09 штиль 0-2
{2}
н/о н/о +5.2 +3.2 87 +4 +4 1018.2 973.8
13 20.09 штиль 0-1
{4}
н/о н/о +5.0 +3.2 88 +4 +4 1018.0 973.6
15 20.09 штиль 0-1
{2}
10 км слабый дождь {морось} 10/8 100 м
[St As op]
+5.5 +3.5 87 +5 +5 1018.2 973.9
16 20.09 С 1-2
{2}
н/о н/о +5.7 +3.7 87 +5 +5 1018.3 974.0
17 20.09 штиль 0
{2}
н/о н/о +4.9 +3.4 90 +4 +4 1019.0 974.6
18 20.09 штиль 0-2
{4}
5000 м слабый дождь 10/8 50 м
[Frnb Ac As]
+5.5 +4.3 92 +4 +4 1019.7 975.3 +4.7 +7.7
20 20.09 штиль 0-1
{2}
н/о н/о +4.4 +2.9 90 +3 +3 1020.7 976.1
19 20.09 штиль 0
{1}
н/о н/о +4.7 +3.4 91 +4 +4 1020.1 975.6
21 20.09 штиль 0-1
{1}
н/о н/о +4.4 +3.1 91 +3 +3 1020.7 976.1
22 20.09 штиль 0
{1}
н/о н/о +4.5 +3.2 91 +3 +3 1021.0 976.5
23 20.09 штиль 0
{1}
н/о н/о +4.5 +3.3 92 +3 +3 1021.3 976.7
00 21.09 штиль 0-1
{2}
н/о н/о +5.2 +3.9 91 +4 +4 1021.5 977.0
02 21.09 штиль 0 н/о н/о +5.2 +4.0 92 +4 +4 1021.8 977.3
01 21.09 штиль 0
{1}
н/о н/о +4.9 +3.7 92 +4 +4 1021.8 977.2
03 21.09 штиль 0-1
{1}
н/о н/о +5.6 +4.1 90 +5 +5 1021.9 977.5
04 21.09 штиль 0-2
{2}
н/о н/о +5.6 +4.1 90 +5 +5 1022.1 977.7
05 21.09 штиль 0-2
{2}
н/о н/о +5.8 +4.3 90 +5 +5 1022.4 977.9
06 21.09 СВ 1-2
{2}
10 км 10/1 100 м
[Frnb As op]
+5.9 +4.2 89 +5 +5 1022.6 978.2 +4.4 +6.0
08 21.09 В 1-3
{3}
н/о н/о +6.9 +4.4 84 +6 +6 1023.1 978.8
07 21.09 СВ 1-2
{2}
н/о н/о +6.2 +4.4 88 +5 +5 1022.8 978.4
09 21.09 В 2-3
{3}
н/о н/о +7.4 +4.5 82 +5 +5 1023.2 979.0
10 21.09 В 1-3
{4}
н/о н/о +7.7 +4.7 81 +7 +7 1023.5 979.3
11 21.09 В 2-3
{3}
н/о н/о +8.2 +5.0 80 +6 +6 1023.4 979.3
12 21.09 В 1-3
{4}
15 км {морось} 10/8 100 м
[St Ac As]
+8.2 +5.0 80 +8 +8 1023.5 979.4
14 21.09 В 2-3
{3}
н/о н/о +8.4 +5.3 81 +7 +7 1023.8 979.7
13 21.09 В 1-3
{3}
н/о н/о +8.3 +4.9 79 +8 +8 1023.6 979.5
15 21.09 В 2-3
{3}
10 км 10/10 200 м
[Frnb]
+8.5 +5.4 81 +7 +7 1024.0 979.9
16 21.09 В 1-3
{3}
н/о н/о +8.4 +5.3 81 +8 +8 1024.1 980.0
17 21.09 В 1-2
{2}
н/о н/о +8.1 +5.4 83 +7 +7 1024.5 980.3
18 21.09 В 1-3
{3}
10 км слабый дождь {морось} 10/8 200 м
[Frnb As op]
+8.0 +5.3 83 +7 +7 1024.8 980.6 +5.9 +8.7
20 21.09 В 2-4
{4}
н/о н/о +7.8 +4.8 81 +6 +6 1025.6 981.3
19 21.09 В 1-3
{3}
н/о н/о +7.9 +4.9 81 +7 +7 1025.3 981.1
21 21.09 штиль 0-2
{2}
н/о н/о +7.5 +5.0 84 +7 +7 1025.9 981.6
22 21.09 штиль 0-2
{2}
н/о н/о +7.1 +4.6 84 +6 +6 1026.2 981.8
23 21.09 штиль 0-1
{2}
н/о н/о +6.9 +4.6 85 +6 +6 1026.2 981.8
00 22.09 СВ 1-2
{4}
н/о н/о +7.0 +4.3 83 +6 +6 1026.3 981.9
02 22.09 штиль 0
{1}
н/о н/о +7.0 +4.8 86 +6 +6 1026.0 981.6
01 22.09 штиль 0
{2}
н/о н/о +6.9 +4.6 85 +6 +6 1026.2 981.8
03 22.09 В 1-2
{2}
н/о н/о +7.4 +5.1 85 +7 +7 1025.8 981.4
04 22.09 В 1-2
{2}
н/о н/о +7.1 +4.9 86 +6 +6 1026.0 981.7
05 22.09 штиль 0-1
{2}
н/о н/о +7.1 +5.3 88 +6 +6 1026.2 981.8
06 22.09 штиль 0-1
{2}
н/о н/о +7.0 +5.3 89 +6 +6 1026.3 981.9 +6.8 +8.0
08 22.09 штиль 0-2
{2}
н/о н/о +8.2 +5.7 84 +7 +7 1026.7 982.4
07 22.09 штиль 0-2
{2}
н/о н/о +7.7 +5.4 85 +7 +7 1026.6 982.3
09 22.09 В 1-2
{2}
н/о н/о +8.4 +5.7 83 +8 +8 1026.7 982.5
10 22.09 штиль 0-2
{2}
н/о н/о +8.9 +6.0 82 +8 +8 1026.7 982.6
11 22.09 В 2-3
{3}
н/о н/о +9.3 +6.4 82 +8 +8 1026.5 982.4
12 22.09 В 1-2
{3}
н/о н/о +9.5 +6.4 81 +9 +9 1026.3 982.3
14 22.09 В 2-3
{3}
н/о н/о +10.0 +7.3 83 +8 +8 1026.6 982.6
13 22.09 В 2-3
{3}
н/о н/о +9.9 +6.8 81 +8 +8 1026.5 982.5
15 22.09 штиль 0-2
{2}
15 км 10/0
[Ac As]
+10.2 +6.7 79 +10 +10 1026.0 982.1
16 22.09 В 2-3
{3}
н/о н/о +10.8 +7.1 78 +10 +10 1026.1 982.3
17 22.09 штиль 0-1
{3}
н/о н/о +10.0 +6.5 79 +9 +9 1026.3 982.4
18 22.09 штиль 0-1
{3}
20 км 10/0
[Ac As]
+9.6 +6.5 81 +9 +9 1026.3 982.3 +7.0 +10.9
20 22.09 штиль 0 н/о н/о +8.9 +6.9 87 +8 +8 1026.9 982.8
19 22.09 штиль 0 н/о н/о +9.0 +6.6 85 +8 +8 1026.6 982.5
21 22.09 штиль 0 н/о н/о +8.6 +6.9 89 +8 +8 1027.3 983.1
22 22.09 штиль 0 н/о н/о +8.5 +6.8 89 +8 +8 1027.3 983.1
23 22.09 штиль 0-1
{1}
н/о н/о +8.6 +7.1 90 +8 +8 1027.2 983.0
00 23.09 штиль 0
{1}
н/о н/о +8.6 +6.9 89 +8 +8 1027.3 983.1
02 23.09 штиль 0 н/о н/о +8.4 +6.9 90 +8 +8 1027.1 982.9
01 23.09 штиль 0 н/о н/о +8.5 +7.0 90 +8 +8 1027.2 983.0
03 23.09 штиль 0 10 км 10/8 200 м
[Cu Sc Ac As]
+8.4 +7.0 91 +7 +7 1027.3 983.0
04 23.09 штиль 0 н/о н/о +8.3 +6.8 90 +7 +7 1027.5 983.2
05 23.09 штиль 0 н/о н/о +8.2 +6.8 91 +7 +7 1027.7 983.4
06 23.09 штиль 0 10 км {туман} 10/10 100 м
[St]
+8.2 +6.8 91 +7 +7 1028.2 983.9 +8.1 +9.6
08 23.09 штиль 0-1
{1}
н/о н/о +9.5 +6.9 84 +9 +9 1028.6 984.5
07 23.09 штиль 0 н/о н/о +8.7 +6.8 88 +8 +8 1028.3 984.1
09 23.09 штиль 0 10 км 10/10 100 м
[St]
+10.1 +7.0 81 +9 +9 1029.1 985.0
10 23.09 штиль 0 н/о н/о +10.4 +6.9 79 +10 +10 1029.0 985.0
11 23.09 штиль 0 н/о н/о +10.8 +6.6 75 +10 +10 1029.1 985.2
12 23.09 штиль 0
{1}
20 км 10/10 600 м
[Frnb]
+11.4 +6.3 71 +11 +11 1029.0 985.2
14 23.09 штиль 0
{2}
н/о н/о +12.1 +7.0 71 +12 +12 1028.9 985.2
13 23.09 ЮЗ 1-1
{1}
н/о н/о +11.8 +6.5 70 +12 +12 1028.8 985.0
15 23.09 штиль 0 н/о н/о +12.2 +7.3 72 +12 +12 1028.8 985.1
16 23.09 штиль 0 н/о н/о +11.6 +7.5 76 +11 +11 1029.0 985.2
17 23.09 штиль 0 н/о н/о +11.1 +8.0 81 +11 +11 1029.4 985.5
18 23.09 штиль 0
{2}
20 км 10/10 1000 м
[Sc]
+10.5 +8.1 85 +10 +10 1029.7 985.7 +8.2 +12.7
20 23.09 штиль 0 н/о н/о +10.4 +8.5 88 +10 +10 1030.1 986.0
19 23.09 штиль 0 н/о н/о +10.8 +8.6 86 +10 +10 1029.8 985.9
21 23.09 штиль 0 н/о н/о +10.3 +8.6 89 +10 +10 1030.3 986.3
22 23.09 штиль 0 н/о н/о +10.3 +8.6 89 +10 +10 1030.4 986.4
23 23.09 штиль 0 н/о н/о +10.4 +8.8 90 +10 +10 1030.4 986.3
00 24.09 штиль 0 н/о н/о +10.2 +8.6 90 +9 +9 1030.3 986.2
02 24.09 штиль 0 н/о н/о +10.0 +8.6 91 +9 +9 1030.2 986.1
01 24.09 штиль 0 н/о н/о +10.2 +8.6 90 +9 +9 1030.2 986.2
03 24.09 штиль 0 н/о н/о +10.0 +8.8 92 +9 +9 1030.2 986.0
04 24.09 штиль 0 н/о н/о +9.9 +8.7 92 +9 +9 1030.3 986.1
05 24.09 штиль 0
{1}
н/о н/о +9.9 +8.8 93 +9 +9 1030.3 986.2
06 24.09 штиль 0
{1}
5000 м слабый дождь 10/10
[As op]
+10.0 +8.9 93 +9 +9 1030.9 986.7 +9.8 +11.1
08 24.09 штиль 0 н/о н/о +10.3 +9.2 93 +10 +10 1031.4 987.3
07 24.09 штиль 0 н/о н/о +10.1 +9.0 93 +9 +9 1031.0 986.9
09 24.09 штиль 0 5000 м слабая морось 10/8 50 м
[Frnb As op]
+10.6 +9.4 92 +10 +10 1031.6 987.5
10 24.09 штиль 0 н/о н/о +10.7 +9.5 92 +10 +10 1031.7 987.6
11 24.09 штиль 0 н/о н/о +10.8 +9.6 92 +10 +10 1032.0 987.9
12 24.09 штиль 0-1
{1}
3000 м слабая морось 10/10 50 м
[Frnb]
+11.2 +9.6 90 +11 +11 1032.5 988.5
14 24.09 штиль 0
{1}
н/о н/о +11.4 +9.7 89 +11 +11 1032.6 988.6
13 24.09 штиль 0
{1}
н/о н/о +11.3 +9.7 90 +11 +11 1032.5 988.5
15 24.09 штиль 0
{1}
3000 м слабая морось 10/10 50 м
[Frnb]
+11.6 +9.7 88 +11 +11 1032.7 988.7
16 24.09 штиль 0
{1}
н/о н/о +11.4 +9.7 89 +11 +11 1033.0 989.0
17 24.09 штиль 0
{1}
н/о н/о +11.2 +9.8 91 +11 +11 1033.1 989.0
18 24.09 штиль 0
{1}
3000 м в посл. час туман 10/10 50 м
[St]
+11.2 +10.0 92 +10 +10 1033.6 989.5 +9.9 +11.8
20 24.09 штиль 0 н/о н/о +11.2 +10.1 93 +10 +10 1034.4 990.3
19 24.09 штиль 0 н/о н/о +11.1 +10.0 93 +10 +10 1034.2 990.0
21 24.09 штиль 0 н/о н/о +11.1 +10.2 94 +10 +10 1034.9 990.8
22 24.09 штиль 0 н/о н/о +11.0 +10.1 94 +10 +10 1035.4 991.2
23 24.09 штиль 0 н/о н/о +11.0 +10.1 94 +10 +10 1035.7 991.5
00 25.09 штиль 0 3000 м в посл. час туман {морось} 10/10 50 м
[St]
+10.8 +9.9 94 +10 +10 1036.0 991.8
02 25.09 штиль 0 н/о н/о +10.9 +10.0 94 +10 +10 1036.2 992.0
01 25.09 штиль 0 н/о н/о +10.9 +10.0 94 +10 +10 1036.1 991.9
03 25.09 штиль 0 н/о н/о +10.9 +10.0 94 +10 +10 1036.3 992.0
04 25.09 штиль 0 н/о н/о +10.9 +10.0 94 +10 +10 1036.1 991.9
05 25.09 штиль 0 н/о н/о +10.8 +9.9 94 +10 +10 1036.2 991.9
06 25.09 штиль 0 3500 м в посл. час туман {морось} 10/10 100 м
[St]
+10.9 +10.0 94 +10 +10 1036.5 992.2 +10.8 +11.2
08 25.09 штиль 0 н/о н/о +11.2 +10.1 93 +10 +10 1036.9 992.7
07 25.09 штиль 0 н/о н/о +11.0 +10.1 94 +10 +10 1036.8 992.5
09 25.09 штиль 0 20 км слабая морось 10/3 300 м
[Frnb As op]
+11.3 +10.1 92 +11 +11 1037.1 992.9
10 25.09 штиль 0 н/о н/о +11.6 +10.2 91 +11 +11 1036.9 992.8
11 25.09 штиль 0 н/о н/о +11.5 +10.1 91 +11 +11 1037.0 992.8
12 25.09 штиль 0 20 км 10/3 300 м
[Frnb As op]
+11.5 +10.3 92 +11 +12 1036.8 992.6
14 25.09 штиль 0-1
{2}
н/о н/о +11.9 +10.0 88 +11 +11 1036.4 992.3
13 25.09 штиль 0 н/о н/о +11.7 +10.3 91 +11 +11 1036.5 992.4
15 25.09 штиль 0-1
{2}
н/о н/о +11.9 +9.6 86 +11 +11 1036.3 992.2
16 25.09 штиль 0-1
{2}
н/о н/о +11.4 +9.2 86 +11 +11 1036.6 992.5
17 25.09 штиль 0
{1}
н/о н/о +11.1 +8.9 86 +10 +10 1036.9 992.6
18 25.09 штиль 0
{2}
н/о н/о +10.9 +8.8 87 +10 +10 1036.9 992.7 +10.7 +12.0
20 25.09 штиль 0 н/о н/о +10.4 +9.0 91 +10 +10 1037.6 993.2
19 25.09 штиль 0 н/о н/о +10.7 +8.6 87 +10 +10 1037.2 992.9
21 25.09 штиль 0 н/о н/о +10.2 +8.8 91 +9 +9 1037.7 993.3
22 25.09 штиль 0 н/о н/о +10.2 +8.6 90 +9 +9 1038.0 993.6
23 25.09 штиль 0 н/о н/о +9.9 +7.7 86 +9 +9 1038.1 993.7
00 26.09 штиль 0 25 км {морось} 10/3 100 м
[Frnb As op]
+9.4 +7.5 88 +9 +9 1038.0 993.5
01 26.09 штиль 0 н/о н/о +9.3 +7.6 89 +8 +8 1038.1 993.5

 

Местоположение метеостанции Fagernes (Норвегия): широта 60.99 долгота 9.24 высота над уровнем моря 365 м.

В архиве по умолчанию представлена погода в Fagernes за последнюю неделю. Архивные данные за месяц целиком и за предыдущие месяцы, начиная с января 2011 года, Вы можете получить, выбрав интересующий диапазон дат из раскрывающегося списка и нажав кнопку "Ввод!".

Внимание! Время в таблицах - всемирное. Для получения местного времени необходимо прибавить поправку, которая в Fagernes равна 1 ч.

Смотрите также архив погоды в соседних городах и на ближайших метеорологических станциях:

Погода в Fagernes Lufthavn (Норвегия) (4 км)
Погода в Loken i Volbu (Норвегия) (17 км)
Погода в Beitostolen II (Норвегия) (34 км)
Погода в Hemsedal II (Норвегия) (38 км)
Погода в Hemsedal-Hollekolten (Норвегия) (41 км)
Погода в Vest-Torpa II (Норвегия) (43 км)
Погода в Nesbyen-Todokk (Норвегия) (47 км)
Погода в Skabu (Норвегия) (61 км)
Погода в Filefjell-Kyrkjestolane (Норвегия) (64 км)
Погода в Lillehammer (Норвегия) (68 км)

Пояснения к столбцам:

Ветер - указаны скорость ветра в м/с - средняя за 10 мин, порывы в срок и между сроками (в фигурных скобках) и направление, откуда дует ветер: С - северный, СВ - северо-восточный, В - восточный, ЮВ - юго-восточный, Ю - южный, ЮЗ - юго-западный, З - западный, СЗ - северо-западный.
Видимость - горизонтальная дальность видимости в метрах или километрах. При видимости от 1 до 10 км при отсутствии осадков обычно наблюдается дымка, при ухудшении видимости до 1 км и менее - туман. В сухую погоду видимость может ухудшаться дымом, пылью или мглою.
Явления - указаны атмосферные явления, наблюдавшиеся в срок или в последний час перед сроком; фигурными скобками обозначены явления, наблюдавшиеся между сроками (за 1-3 часа до срока); квадратными скобками обозначены град или гололедные отложения с указанием их диаметра в мм.
Облачность - указаны через наклонную черту общая и нижняя облачность в баллах и высота нижней границы облаков в метрах; квадратными скобками обозначены формы облаков: Ci - перистые, Cs - перисто-слоистые, Cc - перисто-кучевые, Ac - высококучевые, As - высокослоистые, Sc - слоисто-кучевые, Ns - слоисто-дождевые, Cu - кучевые, Cb - кучево-дождевые. Подробнее классификацию облаков см. в Атласе облаков (PDF).
T - Температура воздуха - температура, измеренная на высоте 2 м над землей.
Td - Температура точки росы - температура, при понижении до которой содержащийся в воздухе водяной пар достигнет насыщения.
f - Относительная влажность воздуха - влажноcть воздуха, измеренная на высоте 2 м над землей.
Te - Эффективная температура - температура, которую ощущает одетый по сезону человек в тени. Характеристика душности погоды. При расчете учитывается влияние влажности воздуха и скорости ветра на теплоощущения человека.
Tes - Эффективная температура на солнце - температура, которую ощущает человек, с поправкой на солнечный нагрев. Характеристика знойности погоды. Зависит от высоты солнца над горизонтом, облачности и скорости ветра. Ночью, в пасмурную погоду, а также при ветре 12 м/с и более поправка равна нулю.
P - Атмосферное давление - приведенное к уровню моря атмосферное давление.
Po - Атмосферное давление - измеренное на уровне метеостанции атмосферное давление.
Tmin - Минимальная температура - минимум температуры воздуха на высоте 2 м над землей.
Tmax - Максимальная температура - максимум температуры воздуха на высоте 2 м над землей.
R - Количество осадков - Количество выпавших осадков за период времени, мм. При наведении курсора мыши на число - период времени, за который выпало указанное количество осадков.
R24 - Количество осадков - Количество выпавших осадков за 24 часа, мм.
S - Снежный покров - Высота снежного покрова, см. При наведении курсора мыши на число - состояние снежного покрова и степень покрытия местности в баллах.